Location: Unspecified
(0.0000°N, 0.0000°E)
Time: 15:08:02
(UTC+00:00)

Envisat - Pass Details

Date: 03 February 2019
Orbit: 764 x 766 km, 98.1° (Epoch: 21 October)

Event Time Altitude Azimuth Distance (km) Brightness Sun altitude
Rises 19:07:43 0° 167° (SSE) 3,232 6.3 -12.9°
Reaches altitude 10° 19:10:01 10° 167° (SSE) 2,303 5.5 -13.5°
Maximum altitude 19:15:06 86° 79° (E) 771 2.9 -14.7°
Drops below altitude 10° 19:20:10 10° 349° (N) 2,293 5.4 -15.9°
Sets 19:22:28 0° 349° (N) 3,216 6.2 -16.4°
